Location: Haliburton Scout Reserve
(45.0900°N, 78.3200°W)
Time: 14:41:45
(UTC-04:00)

Courier 1B Rocket - Pass Details

Date: 08 February 2023
Orbit: 920 x 1202 km, 28.2° (Epoch: 27 March)

Event Time Altitude Azimuth Distance (km) Brightness Sun altitude
Rises 18:21:20 0° 246° (WSW) 3,586 9.9 -9.4°
Reaches altitude 10° 18:25:52 10° 217° (SW) 2,611 8.0 -10.2°
Maximum altitude 18:28:05 12° 195° (SSW) 2,460 7.5 -10.6°
Drops below altitude 10° 18:30:18 10° 174° (S) 2,600 7.3 -10.9°
Sets 18:34:48 0° 145° (SE) 3,551 7.7 -11.7°
